Hope, British Columbia

1:59 PM PDT on October 18, 2017 (GMT -0700)
Hope

Weather History for CYHE - April, 2013

Change the Weather History Date:

Monday, April 29, 2013

  Actual Average Record
Temperature  
Mean Temperature 48 °F -  
Max Temperature 52 °F 65 °F 82 °F (1998)
Min Temperature 43 °F 46 °F 37 °F (2008)
Degree Days  
Heating Degree Days 18    
Moisture  
Dew Point 35 °F    
Average Humidity 62    
Maximum Humidity 93    
Minimum Humidity 26    
Precipitation  
Precipitation 0.43 in 0.13 in - ()
Sea Level Pressure  
Sea Level Pressure 29.91 in    
Wind  
Wind Speed 12 mph ()    
Max Wind Speed 31 mph    
Max Gust Speed 55 mph    
Visibility 7.9 miles    
Events Rain    
Averages and records for this station are not official NWS values.
T = Trace of Precipitation, MM = Missing Value Source: Averaged Metar Reports

Daily Weather History Graph

Daily Weather History Graph

Search for Another Location

Airport or City:

Trip Planner

Search our weather history database for the weather conditions in past years. The results will help you decide how hot, cold, wet, or windy it might be!

Date:

Astronomy

Apr. 29, 2013 Rise Set
Actual Time 5:46 AM PDT 8:20 PM PDT
Civil Twilight 5:11 AM PDT 8:56 PM PDT
Nautical Twilight 4:26 AM PDT 9:41 PM PDT
Astronomical Twilight 3:33 AM PDT 10:35 PM PDT
Moon 12:04 AM PDT (4/29) 9:04 AM PDT (4/29)
Length of Visible Light 15h 45m
Length of Day
14h 33m
Waning Gibbous, 79% of the Moon is Illuminated
Apr 29
Waning Gibbous
May 2
Last Quarter
May 9
New
May 17
First Quarter
May 24
Full

Hourly Weather History & Observations

Time (PDT) Temp. Windchill Dew Point Humidity Pressure Visibility Wind Dir Wind Speed Gust Speed Precip Events Conditions
12:00 AM 44.6 °F 40.2 °F 42.8 °F 93% 29.86 in 8.0 mi SW 8.1 mph - N/A Rain Rain
12:09 AM 44.6 °F 41.4 °F 42.8 °F 93% 29.85 in 5.0 mi West 5.8 mph - N/A Rain Rain
12:22 AM 44.6 °F 40.7 °F 42.8 °F 93% 29.85 in 4.0 mi West 6.9 mph - N/A Rain Light Rain
12:23 AM 44.6 °F 40.7 °F 42.8 °F 93% 29.85 in 4.0 mi WSW 6.9 mph - N/A Rain Heavy Rain
12:26 AM 44.6 °F 41.4 °F 42.8 °F 93% 29.84 in 4.0 mi WSW 5.8 mph - N/A Rain Rain
12:27 AM 44.6 °F 41.4 °F 42.8 °F 93% 29.84 in 4.0 mi SW 5.8 mph - N/A Rain Rain
12:29 AM 44.6 °F 40.7 °F 42.8 °F 93% 29.84 in 4.0 mi WSW 6.9 mph - N/A Rain Rain
12:45 AM 44.6 °F 40.2 °F 42.8 °F 93% 29.83 in 4.0 mi WSW 8.1 mph - N/A Rain Heavy Rain
12:49 AM 44.6 °F 40.7 °F 42.8 °F 93% 29.83 in 4.0 mi SW 6.9 mph - N/A Rain Rain
1:00 AM 44.6 °F 40.7 °F 42.8 °F 93% 29.83 in 4.0 mi South 6.9 mph - N/A Rain Rain
1:15 AM 44.6 °F 40.7 °F 42.8 °F 93% 29.82 in 5.0 mi SW 6.9 mph - N/A Rain Light Rain
1:16 AM 44.6 °F 41.4 °F 42.8 °F 93% 29.82 in 5.0 mi WSW 5.8 mph - N/A Rain Light Rain
1:18 AM 44.6 °F 39.7 °F 42.8 °F 93% 29.82 in 5.0 mi WSW 9.2 mph - N/A Rain Light Rain
1:19 AM 44.6 °F 40.2 °F 42.8 °F 93% 29.82 in 6.0 mi West 8.1 mph - N/A Rain Rain
1:31 AM 46.4 °F 41.1 °F 42.8 °F 87% 29.81 in 9.0 mi WSW 11.5 mph 19.6 mph N/A Rain Light Rain
1:40 AM 46.4 °F 41.1 °F 42.8 °F 87% 29.81 in 5.0 mi West 11.5 mph 21.9 mph N/A Rain Light Rain
1:45 AM 46.4 °F 40.7 °F 42.8 °F 87% 29.81 in 6.0 mi West 12.7 mph 21.9 mph N/A Rain Light Rain
2:00 AM 46 °F - 44 °F 89% 29.79 in - West 12.7 mph - -  
2:00 AM 46.4 °F 40.1 °F 42.8 °F 87% 29.79 in 9.0 mi West 15.0 mph 27.6 mph N/A Rain Light Rain
2:47 AM 48.2 °F - 41.0 °F 76% 29.79 in 9.0 mi WNW 20.7 mph 39.1 mph N/A   Overcast
3:00 AM 48.2 °F - 39.2 °F 71% 29.80 in 9.0 mi West 21.9 mph 41.4 mph N/A   Overcast
3:17 AM 48.2 °F - 37.4 °F 66% 29.80 in 9.0 mi WNW 15.0 mph 38.0 mph N/A Rain Light Rain
3:27 AM 48.2 °F - 37.4 °F 66% 29.79 in 9.0 mi West 29.9 mph 55.2 mph N/A Rain Light Rain
4:00 AM 48.2 °F - 35.6 °F 62% 29.81 in 9.0 mi West 21.9 mph 46.0 mph N/A Rain Light Rain
4:20 AM 48.2 °F - 35.6 °F 62% 29.81 in 9.0 mi West 25.3 mph 39.1 mph N/A   Mostly Cloudy
4:46 AM 48.2 °F - 35.6 °F 62% 29.81 in 9.0 mi West 19.6 mph 46.0 mph N/A Rain Light Rain
4:48 AM 48.2 °F - 33.8 °F 58% 29.82 in 9.0 mi West 31.1 mph 46.0 mph N/A Rain Light Rain
5:00 AM 48 °F - 36 °F 53% 29.83 in - WSW 23.0 mph - -  
5:00 AM 48.2 °F - 35.6 °F 62% 29.83 in 9.0 mi West 28.8 mph 39.1 mph N/A Rain Light Rain
5:27 AM 48.2 °F - 35.6 °F 62% 29.84 in 9.0 mi West 23.0 mph 38.0 mph N/A   Overcast
5:41 AM 48.2 °F - 33.8 °F 58% 29.85 in 9.0 mi West 18.4 mph 34.5 mph N/A Rain Light Rain
5:58 AM 48.2 °F - 33.8 °F 58% 29.85 in 9.0 mi West 18.4 mph 34.5 mph N/A   Overcast
6:00 AM 48.2 °F - 33.8 °F 58% 29.85 in 9.0 mi West 18.4 mph 34.5 mph N/A   Overcast
6:29 AM 48.2 °F - 33.8 °F 58% 29.86 in 9.0 mi Variable 17.3 mph 27.6 mph N/A Rain Light Rain
6:39 AM 46.4 °F 39.0 °F 33.8 °F 62% 29.86 in 9.0 mi West 19.6 mph 28.8 mph N/A   Overcast
7:00 AM 48.2 °F - 32.0 °F 54% 29.88 in 9.0 mi West 10.4 mph 32.2 mph N/A   Overcast
7:40 AM 46.4 °F 38.5 °F 32.0 °F 57% 29.91 in 9.0 mi West 21.9 mph 33.4 mph N/A   Overcast
8:00 AM 47 °F - 31 °F 42% 29.93 in - West 16.1 mph - -  
8:00 AM 46.4 °F 39.8 °F 30.2 °F 53% 29.93 in 9.0 mi WNW 16.1 mph 32.2 mph N/A   Overcast
9:00 AM 48.2 °F - 26.6 °F 43% 29.95 in 9.0 mi WSW 16.1 mph 40.3 mph N/A   Overcast
9:51 AM 46.4 °F 39.5 °F 28.4 °F 50% 29.96 in 9.0 mi West 17.3 mph 40.3 mph N/A Rain Light Rain
10:00 AM 46.4 °F 39.2 °F 28.4 °F 50% 29.97 in 9.0 mi West 18.4 mph 35.7 mph N/A Rain Light Rain
11:00 AM 47 °F - 34 °F 49% 29.99 in - West 16.1 mph - -  
11:00 AM 48.2 °F - 32.0 °F 54% 29.99 in 9.0 mi WNW 13.8 mph 31.1 mph N/A Rain Light Rain
11:04 AM 48.2 °F - 33.8 °F 58% 29.99 in 9.0 mi WNW 15.0 mph 31.1 mph N/A   Mostly Cloudy
11:25 AM 50.0 °F - 28.4 °F 43% 30.00 in 9.0 mi WNW 20.7 mph 32.2 mph N/A Rain Light Rain
12:00 PM 48.2 °F - 33.8 °F 58% 30.00 in 9.0 mi West 8.1 mph 21.9 mph N/A Rain Light Rain
12:07 PM 50.0 °F - 30.2 °F 47% 30.00 in 9.0 mi West 20.7 mph 28.8 mph N/A Rain Light Rain
12:09 PM 48.2 °F - 32.0 °F 54% 30.00 in 9.0 mi West 9.2 mph 28.8 mph N/A   Overcast
12:36 PM 51.8 °F - 28.4 °F 41% 30.00 in 9.0 mi WNW 20.7 mph 38.0 mph N/A   Overcast
1:00 PM 50.0 °F - 30.2 °F 47% 30.00 in 9.0 mi West 15.0 mph 23.0 mph N/A   Overcast
1:05 PM 50.0 °F - 32.0 °F 50% 30.00 in 9.0 mi WSW 16.1 mph 27.6 mph N/A Rain Light Rain
1:17 PM 51.8 °F - 30.2 °F 44% 30.00 in 9.0 mi West 18.4 mph 29.9 mph N/A   Overcast
1:54 PM 50.0 °F - 32.0 °F 50% 30.02 in 9.0 mi West 10.4 mph 32.2 mph N/A Rain Light Rain
2:00 PM 49 °F - 32 °F 39% 30.01 in - West 13.8 mph - -  
2:00 PM 50.0 °F - 32.0 °F 50% 30.02 in 9.0 mi West 13.8 mph 31.1 mph N/A Rain Light Rain
2:09 PM 50.0 °F - 30.2 °F 47% 30.01 in 9.0 mi West 11.5 mph 21.9 mph N/A   Overcast
2:33 PM 50.0 °F - 32.0 °F 50% 30.02 in 9.0 mi WNW 17.3 mph 29.9 mph N/A Rain Light Rain
3:00 PM 50.0 °F - 32.0 °F 50% 30.01 in 9.0 mi NW 4.6 mph 21.9 mph N/A Rain Light Rain
3:27 PM 50.0 °F - 32.0 °F 50% 30.01 in 9.0 mi WNW 6.9 mph - N/A   Overcast
4:00 PM 51.8 °F - 26.6 °F 38% 30.00 in 9.0 mi WNW 9.2 mph 21.9 mph N/A   Overcast
5:00 PM 51 °F - 27 °F 26% 30.01 in - WSW 12.7 mph - -  
5:00 PM 51.8 °F - 28.4 °F 41% 30.01 in 9.0 mi WNW 12.7 mph 25.3 mph N/A   Overcast
6:00 PM 51.8 °F - 24.8 °F 35% 30.01 in 9.0 mi West 15.0 mph 25.3 mph N/A   Overcast
7:00 PM 50.0 °F - 24.8 °F 37% 30.01 in 9.0 mi West 13.8 mph 20.7 mph N/A   Overcast
8:00 PM 50 °F - 27 °F 28% 30.03 in - West 10.4 mph - -  
8:00 PM 50.0 °F - 26.6 °F 40% 30.03 in 9.0 mi West 16.1 mph - N/A   Overcast
9:00 PM 48.2 °F - 30.2 °F 50% 30.04 in 9.0 mi West 11.5 mph 18.4 mph N/A   Overcast
10:00 PM 48.2 °F - 30.2 °F 50% 30.05 in 9.0 mi WNW 11.5 mph 26.5 mph N/A   Overcast
11:00 PM 47 °F - 33 °F 45% 30.07 in - West 13.8 mph - -  
11:00 PM 48.2 °F - 32.0 °F 54% 30.07 in 9.0 mi West 12.7 mph 29.9 mph N/A   Overcast